Location: Bouysse
(45.3674°N, 1.8947°E)
Time: 17:42:04
(UTC+00:00)

STARLINK-25 - Pass Details

Date: 07 June 2020
Orbit: 434 x 435 km, 53.0° (Epoch: 09 July)

Event Time Altitude Azimuth Distance (km) Brightness Sun altitude
Exits shadow 02:51:44 16° 225° (SW) 1,217 4.7 -10.5°
Maximum altitude 02:54:21 68° 144° (SE) 471 3.2 -10.2°
Drops below altitude 10° 02:57:48 10° 61° (ENE) 1,545 7.2 -9.7°
Sets 02:59:56 0° 59° (ENE) 2,416 8.6 -9.5°
